Regional Weather Roundup
Issued by NWS

Home | Current Version | Previous Version | Text Only | Print | Product List | Glossary On
Versions: 1 2 3 4 5 6 7 8 9 10 11 12 13 14 15 16 17 18 19 20 21 22 23 24 25 26 27 28 29 30 31 32 33 34 35 36 37 38 39 40 41 42 43 44 45 46 47 48 49 50
000
ASUS42 KKEY 042310
RWRKEY

FLORIDA REGIONAL WEATHER ROUNDUP FOR THE FLORIDA KEYS
NATIONAL WEATHER SERVICE KEY WEST FLORIDA
700 PM EDT TUE AUG 04 2015

...SOUTH FLORIDA AND THE KEYS...

CITY           SKY/WX    TMP DP  RH WIND       PRES   REMARKS
FORT MYERS     SUNNY     90  68  48 NW12      30.02F HX  94
SW REGIONAL AP SUNNY     92  65  40 NE6       30.02F HX  94
NAPLES         PTSUNNY   88  74  63 SW6       30.04F HX  96
MIAMI          PTSUNNY   88  72  58 SE5       30.04S HX  94
WEST KENDALL   SUNNY     89  73  59 VRB3      30.04F HX  97
HOMESTEAD      SUNNY     88  74  63 E6        30.05R HX  96
MARATHON       SUNNY     88  75  65 SE5       30.04S HX  97
BOCA CHICA NAS MOSUNNY   88  73  61 E9        30.05R HX  95
KEY WEST INTL  SUNNY     88  75  65 E7        30.05R HX  97

...INTERNATIONAL WEATHER...

CITY           SKY/WX    TMP DP  RH WIND       PRES   REMARKS
NASSAU BAHAMAS MOSUNNY   86  75  70 S7        30.08R HX  95
CANCUN MEXICO  PTSUNNY   88  77  70 NE8       30.00S HX 100
COZUMEL MEXICO PTSUNNY   81  73  78 SE8       29.93F

ADJACENT COASTAL WATERS...

STATION/POSITION TIME  SKY/WX   TEMP    WIND        PRES    WAVE
                                AIR SEA DIR/SP/G            HT/PER
                 (UTC)          (F)     (DEG/KT/KT) (MB)    (FT/S)
PULASKI SHOAL LI 2200            84     120/  4/  5 1017.3R
SAND KEY         2250            85     110/  9/ 10 1017.3R
SOMBRERO KEY     2300            88     100/  8/  9 1018.3R
LONG KEY         2200            86 89  100/  7/  8 1018.0F
MOLASSES REEF    2300            85 88   80/  7/  7 1017.6R
FOWEY ROCKS      NOT AVBL

$$


USA.gov is the U.S. government's official web portal to all federal, state and local government web resources and services.